Tracking 29777 objects as of 4-Oct-2024
HD Live streaming from Space Station
objects crossing your sky now

CZ-3C DEB

Track CZ-3C DEB now!


NORAD ID: 40178
Int'l Code: 2010-057AG
Perigee: 863.3 km
Apogee: 37,959.7 km
Inclination: 18.9 °
Period: 686.7 minutes
Semi major axis: 25782 km
RCS: Unknown
Launch date: October 31, 2010
Source: People's Republic of China (PRC)
Launch site: Xichang Space Center, China (XSC)

Note: This is SATELLITE DEBRIS
Your satellite tracking list
Your tracking list is empty




NASA's NSSDC Master Catalog

Two Line Element Set (TLE):
1 40178U 10057AG  24273.02177006 -.00000064  00000-0  19770-1 0  9990
2 40178  18.9143 124.1832 7194104 218.1280 353.3338  2.09707943 19028
Source of the keplerian elements: AFSPC